Find Starlink 3088

NORAD ID: 49163 Int'l Des: 2021-082 Owner: SPXS Country: US Constellation: starlink operational
LEOCIRCULAR

Aktuelle Ansicht

3D-Globus wird geladen...

Über Starlink 3088

Beschreibung wird geladen...

Nächste Überflüge

Passes for default location (London). Set your location on the main map for personalized predictions.

Höhenverlauf

Loading altitude history...

Zweizeiliger Elementsatz

1 49163U 21082AK 26150.00481139 -.00000205 00000-0 -96324-5 0 9994
2 49163 70.0005 70.4781 0003096 275.7118 84.3687 14.97520926259785
Epoch: 30. Mai 2026 • Age: 10 hours

Aktueller Status

Höhe 576.9 km
Geschwindigkeit 7.57 km/s
Subsatellitenpunkt 12.45°N, 160.29°W
Startdatum 14. Sept. 2021
Alter 4.7 years
Typ internet

Technische Details

Klassifizierung Payload
Masse 297.00 kg
Trockenmasse 275.00 kg
Gesamtmasse 297.00 kg
Länge 0.20 m
Durchmesser 2.80 m
Spannweite 9.00 m
Form Box + pan
Hersteller SPXS
Bus-Typ Starlink
Phasenstatus In Orbit
Besitzer/Staat SPXS/US

Most Searched